CAPE
861 1088 1274 1421 1477 1414 1323 1055 1243 1696 1850 2141 2241 2512 2445 2129 2030 2269 2240 2522 2623 2678 2781 2903 3213 3312 3186 3151 3185 3169 3112 2966 2862 2715 2623 2496 2452 2231 2314 2186 2128 2068 2205 2240 2173 2027 1939 1959 2024 1875 2066 2201 1976 2050 2019 1841 1495 1368 1662 2071 2048 1546 1714 1914 1956 2232 2348 2512 2579 2550 2637 2561 2461 2426 2161 1969 1896 2085 2092 2130 1984 1951 2322 2134 1876
946 1095 1382 1675 1607 1466 1234 1065 1427 1886 2124 2333 2579 2148 2264 2352 2336 2306 2335 2402 2592 2829 2935 3054 3231 3221 3213 3161 3178 3097 2958 2765 2578 2420 2281 2154 2108 2132 2077 2258 2198 2150 2226 2148 2020 1987 1863 1890 1710 1680 1805 2104 2080 2025 1905 1735 1758 1526 1391 1777 1889 1918 1756 1852 2004 2182 2292 2332 2442 2480 2398 2361 2263 2203 1936 2194 2061 2044 2103 1950 2002 2316 2190 1965 1727
1063 1161 1597 2084 1915 1813 1774 2012 1998 1794 1852 1994 2107 2515 2435 2159 2301 2388 2540 2592 2930 2900 3010 3100 3104 3100 2972 3077 3093 2933 2723 2481 2237 2118 2106 2151 2149 2261 2270 2210 2241 2261 2190 2136 2085 2158 2181 2167 2007 2137 1841 1665 1956 2047 2009 1788 1795 1541 1464 1496 1734 1946 1882 1870 1983 2069 2218 2274 2434 2277 2313 2134 1797 2073 2103 2052 2192 2199 1912 1896 2080 2174 1941 1906 1788
1105 1280 1639 2317 2297 2332 2373 1958 1971 2082 1623 1626 2017 2016 2004 1920 2181 2362 2701 2801 2886 3117 3171 3162 3158 3104 3043 3041 3017 2718 2430 2196 2182 2208 2240 2448 2375 2247 2326 2195 2225 2204 2168 2354 2220 2306 2225 2240 2150 2122 2137 2081 1871 1826 1993 2065 1922 1711 1342 1714 2011 1671 1637 1836 1881 1932 2039 2331 2268 2264 2339 2196 2072 1903 1822 1741 1879 2180 2055 1921 1982 1939 1928 1781 1643
1045 1362 1737 2225 2296 2362 2344 1995 2025 2088 1897 1726 1742 1770 1826 1920 2109 2471 2737 2854 2978 3084 3219 3177 3154 3082 3052 2826 2619 2341 2212 2218 2356 2627 2242 2371 2200 2363 2193 2208 2174 2236 2240 2247 2344 2115 2298 2178 2261 2162 2075 2094 2151 1990 1878 1756 1427 1584 1573 1538 1566 1810 1361 1495 1622 1992 2023 2047 1491 1749 1631 2008 1802 2267 1697 1745 1904 1810 2010 1937 1902 1833 1874 1484 1231
1064 1368 1709 2139 2140 2545 2631 2471 2249 2393 2467 2022 1794 1771 1885 1993 2205 2528 2802 2885 3024 3070 3155 3224 3099 3082 2918 2668 2538 2124 2153 2498 2569 2562 2433 2426 2341 2241 2235 2317 2254 2306 2243 2353 2294 2252 2152 2367 2244 2060 1998 2010 1987 2088 1806 1777 1292 1231 1336 1166 1322 1648 1710 1933 1721 1696 1747 1555 1344 2068 1457 1796 1944 2198 1569 1634 2028 1939 1730 2042 1950 1813 1490 1265 1199
1142 1377 1720 2004 2039 2285 2648 2620 2477 2575 2462 2415 2186 2064 1997 2216 2348 2712 2827 2857 3080 3039 2996 3036 3046 2903 2786 2530 2406 2308 2237 2398 2344 2459 2273 2313 2308 2186 2344 2329 2251 2241 2221 2320 2061 2093 2112 2122 2109 2081 1816 1975 1942 1912 1556 1376 1113 1044 1026 987 1225 1346 1449 1677 1641 1468 1519 1425 1259 1338 1510 1548 1866 1886 1981 1863 1670 1825 1747 1793 1759 1828 1657 1045 1088
1317 1519 1792 1964 1983 2255 2463 2531 2590 2663 2638 2597 2604 2608 2655 2670 2738 2628 2734 2928 3044 3007 2994 3088 3014 2953 2680 2472 2412 2626 2689 2514 2406 2320 2218 2221 2264 2281 2377 2325 2231 2383 2434 2143 2116 2150 2076 1954 2109 1656 1928 1888 1785 1439 1371 1362 1168 924 1005 838 874 1137 1222 1349 1275 1321 1451 1356 1183 1280 1465 1625 1576 1876 2299 1475 1634 1658 1662 1638 1922 1673 1384 902 1126
1350 1640 1845 1888 1964 2305 2534 2625 2679 2672 2824 2755 2728 2682 2636 2730 2835 2826 2927 3026 3024 2963 2926 3022 2999 2876 2784 2482 2487 2646 2547 2408 2376 2404 2137 2010 2115 2313 2359 2438 2453 2499 2316 2233 2132 2169 2047 1965 2008 2018 1800 1647 1582 1489 1361 1190 1058 909 807 787 784 1019 1058 1091 1042 1241 1330 1130 1033 1042 1262 1401 1399 1688 1946 1724 1616 1753 1709 1726 1391 1549 1229 1221 1282
1447 1701 1808 1814 1928 2429 2497 2517 2640 2723 2846 2858 2873 2752 2732 2889 2904 2906 2998 2944 2874 2706 2926 2896 2902 2887 2663 2656 2706 2541 2471 2366 2437 2160 2096 2139 2298 2343 2336 2356 2341 2568 2476 2320 2304 2193 2129 2238 1997 2058 2230 1805 1550 1296 1084 1107 1009 965 986 758 750 720 922 983 954 1015 1013 883 837 942 1199 1160 1194 1476 1671 1553 1176 1634 1624 1408 1503 1344 1428 1531 1484
1541 1697 1745 1735 1894 2665 2648 2604 2710 2556 2592 2709 2619 2681 2687 2791 2744 2847 2796 2607 2655 2784 2880 2908 2876 2880 2841 2746 2722 2613 2519 2224 2307 2094 2067 2170 2444 2539 2608 2520 2382 2564 2420 2339 2363 2220 2331 2256 2232 2201 1929 1516 1225 1250 1061 910 863 975 1029 921 790 736 985 915 933 794 928 836 801 930 1152 1211 1178 1162 1500 1428 1443 1252 1304 1160 1367 1144 1373 1549 1530
1494 1701 1726 1713 1996 2545 2784 2645 2700 2624 2543 2454 2506 2569 2451 2665 2734 2650 2627 2677 2775 2966 3100 2955 3047 2794 2669 2616 2620 2650 2541 2429 2123 2039 2072 2239 2380 2422 2449 2273 2328 2502 2588 2423 2447 2470 2370 2382 1793 1846 1951 1741 1438 1224 1022 944 949 923 853 826 952 858 783 1006 857 703 740 778 708 682 861 939 914 956 1378 1491 1401 1326 1529 1199 1183 1377 1140 1125 1154
1437 1613 1675 1703 2003 2358 2648 2654 2656 2712 2482 2389 2268 2514 2486 2678 2742 2851 2830 2882 2988 3071 3077 3167 3029 2880 2724 2655 2654 2620 2546 2387 2423 2322 2312 2343 2522 2409 2383 2433 2331 2308 2372 2530 2614 2488 2252 2371 2206 1901 1826 1610 1528 1302 1254 1136 1029 1150 948 980 781 971 818 840 825 673 610 645 655 800 780 888 832 1078 1201 1549 1305 1396 1628 1282 1166 985 1102 936 1272
1368 1488 1612 1643 1834 2614 2840 2796 2635 2539 2417 2392 2355 2620 2694 2830 2807 2919 2984 3076 3008 3012 3036 3001 2923 2860 2637 2622 2674 2640 2490 2428 2403 2387 2503 2655 2605 2441 2418 2580 2384 2306 2366 2427 2426 2499 2542 2731 2318 2109 1795 1558 1528 1508 1507 1371 1200 1701 999 894 848 833 719 631 759 611 686 604 624 638 815 887 958 1271 1246 1428 1384 1410 1360 1272 1209 868 862 1234 1306
1247 1381 1504 1581 1801 2496 2748 2909 2786 2705 2598 2584 2542 2714 2836 2867 2962 3025 2998 3007 2967 2934 2899 2971 2903 2839 2769 2670 2594 2655 2631 2489 2477 2608 2699 2787 2648 2640 2674 2732 2574 2362 2390 2423 2562 2668 2600 2519 2405 2004 2105 2013 1871 1612 1402 1448 1460 1279 1218 1048 850 911 858 849 767 616 656 587 568 601 870 840 1051 1349 1454 1603 1463 1373 1270 1265 1342 1089 1396 1252 1196
1197 1300 1466 1541 1827 2220 2532 2852 2773 2918 2854 2772 2668 2713 2801 2814 2826 2926 2813 2820 2853 2762 2753 2828 2790 2841 2756 2734 2717 2714 2582 2661 2761 2877 2815 2746 2749 2838 2778 2709 2543 2549 2707 2647 2653 2694 2785 2790 2445 2409 1983 1927 2026 1811 1521 1441 1408 1435 1243 1137 943 1012 942 881 506 631 566 780 615 543 652 800 940 1504 1434 1405 1582 1309 1290 1197 1331 1130 1208 1074 1326
1228 1374 1439 1540 1977 2143 2327 2656 2660 2842 2751 2919 2758 2790 2865 2885 2801 2705 2704 2796 2770 2759 2668 2631 2697 2697 2776 2826 2716 2677 2878 3031 2945 3052 2943 2908 2785 2853 2869 2864 2714 2726 2825 2788 2778 2685 2687 2971 2500 2490 2393 2341 2344 1849 1746 1660 1459 1589 1374 1226 1139 1355 955 891 827 715 674 540 646 618 454 555 970 1103 1248 1151 1148 1175 1413 1421 1362 1235 914 1228 1210
1295 1339 1431 1592 2016 2135 2198 2251 2472 2547 2550 2818 2810 2927 2901 3002 2837 2779 2840 2773 2665 2718 2719 2693 2799 2747 2722 2798 2795 2864 3008 3121 3149 3072 3076 3086 3070 2986 3019 2994 2938 2936 2883 2935 2720 2769 2591 2667 2654 2478 2345 2396 2228 1915 2019 1753 1397 1847 1666 1342 1448 1239 1239 1189 1048 863 660 623 602 537 484 544 1106 1145 1009 1020 1004 1083 1528 1582 1511 1365 1258 1260 1326
1314 1358 1453 1626 1984 2096 2158 2151 2510 2330 2343 2410 2542 2691 2901 2897 2837 2840 2943 2908 2686 2696 2863 2808 2716 2822 2813 2780 2812 2891 3312 3218 3222 3165 3128 3180 3083 3032 2960 3045 3064 3251 3078 2345 2742 2818 2712 2791 2815 2781 2434 2541 2371 2280 2111 1962 1930 1720 1589 1451 1823 1524 1447 1383 884 694 625 570 501 481 489 490 992 942 940 931 716 876 1164 1398 1268 1327 1193 1448 1115
1348 1393 1492 1604 1882 2085 2168 2148 2192 2317 2352 2339 2474 2521 2965 2967 2818 2897 2861 2813 2867 2895 2790 2839 2792 2745 2764 2836 2956 3234 3329 3230 3378 3258 3192 3486 3317 3165 3143 3236 3341 2882 2972 2927 2626 2707 2693 2695 2800 2761 2653 2650 2394 2207 2190 2226 2016 1846 1737 1729 1556 1403 1295 988 952 768 729 686 628 569 556 698 810 1045 941 860 936 852 1046 1168 1100 1161 1259 1340 991
1491 1463 1476 1536 1786 2048 2172 2194 2265 2376 2412 2449 2471 2474 2542 3081 2533 2932 3116 2991 3004 2871 2921 2942 2966 2947 3003 2982 3261 3196 2994 2913 2863 2854 3441 3542 3464 3252 3185 3219 3078 3207 3158 3284 2910 2960 2793 3002 2867 2755 2504 2511 2628 2431 2449 2834 2879 1981 1966 1504 1708 1431 1137 1000 954 676 609 671 637 590 585 707 733 715 728 755 936 964 1055 1026 1285 1130 1298 1442 1115
1442 1460 1536 1522 1718 1905 2069 2202 2281 2341 2437 2447 2447 2452 2449 2988 2911 2829 2893 2923 2829 2870 2966 2880 3201 3128 3380 3324 3030 3236 3160 2953 2893 3250 3241 3316 3224 3440 3487 3451 3311 3106 2612 3232 3210 3386 3202 3100 3188 2850 2654 2626 2879 3128 3048 3100 2981 2576 2036 1896 1741 1354 1128 906 888 822 629 565 603 589 942 735 693 708 687 705 855 927 972 1023 1027 988 898 1217 1068
1329 1435 1457 1598 1676 1779 1888 2063 2186 2277 2370 2412 2420 2399 2348 2358 2377 2600 2853 3076 3179 3248 3116 3067 2993 2929 2816 2727 3085 2745 2665 2704 2774 3108 3317 3560 3318 3687 3704 3642 3300 2883 3186 3105 3454 3503 3632 3679 3458 3244 3015 2872 3071 3264 3013 1985 1378 1970 2378 1637 1477 1432 1272 1069 780 725 718 622 521 530 973 838 789 861 553 578 754 869 844 959 1181 1126 1010 1150 1486
1252 1294 1322 1500 1652 1724 1760 1897 2067 2123 2218 2279 2342 2324 2248 2255 2286 2306 2466 2686 2722 2706 2724 2811 2834 2821 2733 2698 2630 2541 2476 2420 2923 3217 3426 3337 3217 3476 3708 3353 3310 3366 3225 3507 3652 3860 3856 3730 3700 3596 3384 3661 3579 2976 2056 1376 1416 1467 1460 1474 1442 1397 1319 1199 935 617 577 643 718 703 908 1031 899 1047 806 657 867 864 993 1042 999 1074 1082 1168 1468
1146 1160 1145 1333 1574 1623 1632 1734 1905 1898 1981 2039 2191 2153 2098 2132 2177 2150 2166 2314 2508 2559 2537 2508 2524 2548 2551 2496 2447 2446 2417 2370 2312 2307 2273 2276 2276 2342 2457 2616 2679 2670 3197 3375 3528 3466 3754 3504 3470 3600 3516 3434 2778 2259 1646 1320 1481 1576 1548 1524 1452 1299 1187 1170 1082 839 561 396 588 912 1062 960 967 952 1078 916 887 779 1034 1058 1342 960 1055 986 1196
740 811 899 1077 1354 1514 1497 1540 1693 1770 1796 1842 1912 2067 2361 1956 1975 1998 1948 1962 2107 2320 2446 2471 2443 2405 2388 2372 2359 2292 2278 2259 2218 2181 2205 2199 2342 2450 2490 2441 2397 2333 2566 2461 2555 2813 2962 2928 2887 2929 2885 2453 2309 1984 1332 1659 1523 1652 1695 1628 1547 1298 1076 1051 1091 1037 876 581 424 874 952 798 908 995 620 665 830 864 849 1090 1264 957 857 1104 1230
541 668 636 809 1044 1311 1332 1322 1412 1550 1594 1671 1740 1879 2002 1991 1821 1790 1882 1818 1825 1978 2130 2245 2260 2256 2225 2298 2337 2243 2132 2114 2015 1968 2010 2186 2405 2510 2538 2438 2393 2324 2241 2160 2086 2133 2376 2503 2446 2452 2297 2227 2028 1563 1270 1405 1634 1809 1800 1724 1552 1306 1109 1010 1025 988 939 868 646 919 1065 942 740 656 703 647 676 982 916 962 1149 693 713 929 1013
597 688 630 672 919 948 1110 1112 1088 1220 1300 1360 1468 1499 1607 1820 1894 2482 2502 2248 2198 1866 1995 2065 2106 2150 2223 2280 2419 2299 2199 2087 2001 2024 2115 2253 2419 2482 2352 2326 2262 2185 2169 2121 2013 1948 2086 2130 2110 2076 2035 1805 1384 1380 1387 1421 1823 1957 1900 1745 1431 1211 1082 1005 949 937 895 883 885 900 1301 998 710 671 836 703 1100 890 814 956 647 853 1066 1066 758
879 891 872 833 718 785 961 1077 1030 1258 1082 1047 1150 1270 1489 1704 1966 2194 2279 2668 2677 2384 2133 2061 2083 2150 2251 2330 2451 2345 2185 2146 2180 2203 2273 2351 2383 2326 2292 2211 2134 2048 2035 2009 1918 1896 1884 1894 1928 1911 1683 1251 1047 1030 1139 1466 1756 1935 1916 1646 1267 1118 965 932 889 824 826 808 860 855 1342 1775 1088 769 637 772 721 776 934 808 774 827 840 761 743
1109 1056 1112 1084 1021 1053 1113 1222 1266 1289 1312 1126 1084 1282 1504 1674 1844 2086 2197 2876 2748 2674 2577 2422 2265 2094 2170 2247 2296 2410 2327 2306 2311 2320 2322 2401 2353 2296 2242 2166 2083 1981 1882 1770 1663 1829 1899 1824 1828 1787 1199 911 828 980 1640 1826 1820 1741 1501 1230 1144 1040 978 887 767 728 728 751 834 891 1257 1697 1397 786 754 655 813 765 839 842 862 999 1058 836 858
1146 1159 1196 1270 1392 1428 1415 1502 1497 2104 1663 1452 1265 1386 1610 1668 1839 1958 2150 2367 2491 2682 2633 2568 2440 2246 2158 2145 2196 2326 2524 2378 2320 2324 2272 2334 2277 2216 2150 2089 2020 1925 1607 1190 1390 1720 1802 1795 1706 1321 843 631 910 1416 1557 1420 1416 1068 1024 970 835 726 603 592 644 667 681 712 781 878 988 1342 1060 718 680 655 651 715 780 866 698 868 921 551 616
1021 1071 1124 1231 1334 1429 1526 1602 1644 1747 2045 1766 1702 1594 1631 1676 1934 1845 1984 2135 2230 2284 2327 2333 2387 2248 2149 2100 2050 2023 2272 2278 2309 2357 2358 2282 2198 2078 1998 1929 1806 1712 1553 992 769 1204 1465 1431 1514 959 609 750 1422 1620 1442 1121 987 840 838 759 638 619 558 427 423 476 565 602 605 692 695 872 634 894 628 636 703 709 813 782 753 992 877 570 450
800 881 960 1057 1163 1251 1416 1591 1678 1712 1894 1862 1776 1700 1636 1664 1722 1790 1855 2082 2043 2080 2067 2039 2054 2072 2056 2025 1973 1905 1921 1875 1887 2029 2466 2284 2183 2014 1810 1620 1415 1366 1411 734 579 931 1051 1244 958 1040 866 1371 1580 1287 1016 876 784 806 720 670 468 354 322 367 401 395 480 504 639 663 874 727 490 566 636 605 846 726 749 781 936 1034 908 802 747
318 557 717 819 915 1010 1097 1297 1545 1641 1687 1759 1757 1700 1592 1600 1667 1599 1789 1778 1809 1836 1821 1779 1819 1854 1763 1690 1557 1306 1397 1276 1318 1373 1587 1668 1608 1575 1526 1358 1251 1171 937 483 297 274 457 735 560 1113 1909 2023 1078 812 877 826 714 789 674 519 340 288 239 282 383 465 496 578 721 819 996 898 536 323 432 356 558 723 790 803 717 790 1073 891 992
200 345 358 461 500 566 729 879 1356 1457 1703 1584 1794 1643 1584 1520 1487 1475 1491 1500 1503 1516 1508 1466 1410 1365 1252 1129 1111 1094 1110 1619 1990 1939 1710 1428 1262 1139 1272 1123 1050 968 694 445 262 318 382 524 876 1244 1206 827 659 851 1180 899 903 803 732 611 442 308 272 420 511 516 630 757 789 1022 1068 918 629 382 155 109 151 517 672 652 719 710 900 1322 1443
630 524 353 1199 386 110 484 575 935 1139 1273 1465 1521 1544 1535 1472 1375 1687 1295 1319 1336 1330 1163 1068 1070 1049 1046 1006 1274 1547 3121 1653 1264 1355 1462 1483 1558 1428 889 1051 769 645 375 310 373 460 414 509 1170 1270 910 795 784 961 951 940 860 781 729 588 438 431 463 460 558 670 756 773 1015 1178 1126 888 632 402 298 249 115 50 591 576 666 806 868 1027 1473
1400 892 886 520 67 0 570 409 547 828 956 1144 1364 1392 1388 1325 1221 1106 1121 1294 1190 1181 1334 1482 1470 1666 1871 1752 1840 2043 2260 1569 1375 1481 1156 1084 1087 1056 1004 1058 884 549 599 438 517 310 314 597 1117 947 1214 918 1008 996 933 758 769 781 652 557 434 441 557 509 618 795 798 957 1122 1238 976 617 433 486 555 310 140 76 454 679 768 766 822 1045 1331
1112 908 966 1090 890 640 663 625 679 610 720 818 1082 1193 1202 1146 1102 1513 2920 2033 1927 1829 1743 1808 1856 1852 1969 2052 1992 1848 2012 1730 1653 1516 1740 1617 1440 1460 1357 1103 912 673 440 662 762 235 672 1116 853 324 1194 1463 1228 937 883 781 755 795 725 577 385 433 692 811 947 1586 1168 1107 1194 1082 709 471 476 383 437 367 250 198 432 623 748 742 859 774 1063
1087 960 1195 1388 1549 1745 1876 2282 1657 1494 1438 1603 1648 1566 1626 1717 2085 2197 2061 1943 1904 1833 1741 1868 1950 1962 2035 2142 2216 1948 1842 1726 1564 1501 1547 1596 1603 1513 1390 1333 1246 1085 1050 699 659 472 631 627 618 582 850 1276 1094 910 881 788 897 787 588 523 347 407 881 1380 1635 1632 1224 1213 1198 1129 805 559 406 460 382 326 208 371 452 574 787 748 933 925 1057
1286 1306 1085 1165 1272 1394 1548 1843 2161 2319 2370 2391 2216 1943 1993 2086 2037 1914 1704 1792 1995 2054 2132 2210 2217 2140 2013 1840 1687 1700 1591 1520 1446 1408 1377 1303 1285 1298 1336 1282 1275 1032 852 922 820 691 486 695 353 250 697 887 1211 1189 1042 866 764 564 358 271 111 278 851 1150 1118 1067 1140 1169 1262 998 873 617 429 400 306 271 266 448 490 613 717 710 746 825 1069
1172 1201 1061 1092 1178 1257 1453 1793 2182 2526 2501 2407 2318 1941 1969 2004 1904 1615 1310 1504 2266 2460 2378 2166 1837 1555 1577 1599 1622 1511 1356 1243 1205 1034 910 1057 871 902 845 808 743 746 784 742 583 677 550 362 338 424 985 914 691 705 763 871 383 269 121 182 253 185 849 2261 1698 1530 1444 1337 1340 1065 940 750 417 406 413 468 513 542 570 660 794 760 768 862 1002
1129 1362 1140 1112 1115 1135 1195 1213 1429 1939 2560 2682 2742 2491 2319 1766 1419 1144 1756 2522 2502 2226 1936 1630 1438 1295 1388 1577 1461 1146 1044 872 753 675 724 546 474 448 408 351 211 238 370 440 530 617 750 548 373 576 778 918 748 752 872 691 311 452 529 452 314 2 644 895 1132 1027 828 756 816 1042 1036 882 597 451 447 543 611 661 722 738 737 809 1008 825 925
1175 913 1071 1234 1025 1154 1185 1376 1314 1369 2346 2979 2846 2695 2420 2275 2187 2008 2034 2415 2145 1867 1598 1409 1299 1381 1360 1490 1381 1003 916 709 595 585 607 500 459 393 317 250 194 228 265 296 457 510 453 504 657 646 590 687 772 959 1336 569 490 452 247 322 14 82 353 1 26 69 401 766 791 997 959 794 830 613 538 635 570 604 681 773 805 780 927 787 979
833 866 911 718 1528 1460 1050 1096 1315 1470 1696 3099 2565 2460 2187 1979 2354 2539 2399 2094 1706 1462 1358 1474 1574 1337 1250 1068 1170 979 695 639 509 306 443 430 292 268 277 260 220 168 141 203 286 93 289 646 875 1278 1109 503 479 572 1365 377 551 548 246 97 127 45 28 11 0 4 552 933 984 913 946 898 830 878 700 516 641 630 506 582 751 793 864 941 882
787 808 986 1088 1517 1442 1276 1065 971 1235 1880 2984 2634 2211 2332 2617 2541 2210 1821 1561 1358 1390 1374 1386 1627 1444 1241 1018 922 724 630 575 245 115 242 236 138 190 131 82 57 192 178 81 331 691 994 938 770 524 604 556 580 384 189 463 282 613 364 347 155 81 12 16 0 0 92 761 948 1042 1125 1201 957 783 822 760 620 813 836 535 525 619 781 902 1099
729 825 1240 1256 1573 1587 1480 1224 1098 1015 1510 2425 2700 2457 2859 2536 2192 1776 1473 1394 1393 1411 1477 1415 1552 1264 1070 914 622 614 642 500 374 428 389 368 387 375 357 338 92 126 315 298 479 629 652 1088 900 694 661 777 653 0 0 3 0 0 229 338 48 149 212 117 0 0 0 165 530 1002 1142 1322 1140 1022 950 864 867 794 710 762 648 554 640 792 884
1391 1487 1750 1678 1708 1664 1455 1143 1139 1297 1864 3036 3048 2785 2569 2130 1793 1548 1477 1511 1514 1523 1575 1585 1495 1180 835 635 546 632 583 510 445 462 408 365 337 374 583 615 555 475 655 852 641 830 958 1278 1123 610 758 1100 90 0 0 0 0 0 0 0 384 438 227 118 0 0 0 0 23 620 1192 1223 1370 1229 1129 1018 986 886 942 749 740 701 637 682 755
1929 1773 1699 1729 1771 1553 1415 1474 2005 2637 2980 2958 2995 2746 2046 1888 1784 1695 1586 1604 1566 1585 1571 1748 1556 1266 702 627 569 577 593 592 590 560 592 626 667 733 733 714 740 780 1124 855 948 960 547 8 0 0 0 1 0 0 0 0 0 0 0 0 0 0 0 60 2 0 2 0 22 2 490 254 818 1262 1384 1321 1167 1018 781 1150 1027 774 741 710 805
2133 2065 1888 1935 2080 2021 2340 2497 2665 2716 2578 2686 2391 2302 1984 1890 1892 1800 1726 1694 1698 1545 1468 1581 1354 911 587 591 644 695 722 748 716 724 700 709 776 851 906 957 1069 1297 1447 1030 900 69 0 0 0 0 0 0 0 0 0 0 0 0 0 0 0 0 0 0 0 0 26 3 27 0 0 1 11 253 540 1013 1151 1251 1039 867 1148 1082 924 842 788
1973 1954 1988 2375 2512 2419 2573 2524 2378 2512 2482 1987 1949 2080 1975 1917 1856 1910 1800 1657 1751 1473 1650 1669 1257 836 639 689 711 715 711 695 744 771 843 942 976 952 943 877 1120 1463 1688 826 38 0 0 0 0 0 0 0 0 0 0 0 0 0 0 0 0 0 0 0 0 0 0 0 0 0 0 0 0 0 1 256 951 1206 1208 1059 1135 1201 1152 985 925
1975 1975 2001 2228 2354 2456 2562 2639 2595 2394 2066 2028 1889 1842 1773 1917 1923 1828 1819 1629 1516 1586 1725 1372 1087 740 772 684 724 696 694 764 846 930 1042 1073 1017 1183 882 334 259 255 38 0 0 0 0 0 0 0 0 0 0 0 0 0 0 0 0 0 0 0 0 0 0 0 0 0 0 0 0 0 0 0 0 117 1172 1258 1308 1229 1152 1094 1031 1018 1006
Wind_Speed
9 7 5 6 8 8 6 9 17 10 9 9 7 6 6 5 4 4 5 5 5 5 7 8 8 7 7 7 7 7 7 7 7 7 7 7 7 7 8 8 8 9 11 12 13 13 12 12 12 12 12 12 12 12 12 11 10 9 9 9 10 10 10 10 10 10 11 11 12 13 15 16 17 15 14 14 15 16 17 17 16 15 13 16 18
9 7 5 6 10 10 12 16 11 8 7 7 5 5 5 5 5 5 5 5 5 6 7 7 6 5 5 5 6 6 6 6 6 6 6 6 6 7 8 9 9 11 12 12 13 13 12 12 12 12 11 11 11 12 13 13 12 11 10 9 9 9 9 10 10 11 12 12 14 14 15 15 16 16 16 16 17 16 17 17 17 15 12 18 19
6 6 6 7 12 11 12 10 9 7 6 5 6 5 6 6 7 7 6 6 6 7 7 6 6 5 5 5 5 5 6 6 5 5 5 6 7 8 9 10 12 12 13 12 13 13 13 11 12 12 11 11 11 12 13 14 12 9 7 6 7 9 9 10 10 11 11 13 14 15 15 15 16 15 17 17 17 17 17 18 18 18 14 19 19
5 7 7 7 10 9 10 9 9 8 7 8 8 9 8 8 8 8 7 7 7 8 8 7 6 6 5 5 5 6 7 6 6 6 6 8 9 10 11 12 12 13 13 13 13 13 12 13 12 12 12 12 13 14 15 14 11 10 10 5 2 7 10 10 11 10 10 12 15 15 12 14 14 14 16 17 18 17 17 18 19 18 18 19 19
5 7 7 6 7 8 9 10 10 10 11 11 10 10 9 9 8 9 8 9 9 9 8 8 7 7 6 7 7 8 7 7 7 7 8 9 9 11 12 13 13 13 13 13 13 13 13 13 13 13 12 12 13 14 14 11 12 11 10 9 8 5 8 10 11 12 10 10 14 16 13 15 13 13 14 17 18 16 16 18 20 20 20 21 18
6 8 8 7 8 8 8 8 11 11 12 12 12 11 10 9 9 9 9 9 10 10 9 8 8 7 7 8 9 9 8 9 8 8 8 9 11 12 13 13 13 13 13 13 13 12 12 12 12 13 13 13 13 14 14 14 10 8 11 11 11 9 7 7 7 8 6 5 12 17 16 15 15 13 15 15 17 14 14 18 21 21 21 20 19
5 9 8 8 8 8 8 9 10 11 12 12 11 10 10 9 9 9 9 10 10 9 9 8 8 8 8 9 9 9 9 10 9 8 9 9 11 12 13 13 13 14 14 13 12 12 12 12 12 12 13 14 13 14 14 11 11 12 11 10 14 13 10 10 9 8 9 5 9 18 15 15 15 11 12 14 17 14 13 15 19 20 21 25 22
5 8 9 9 9 7 8 9 9 10 11 11 11 10 10 9 9 9 10 10 10 9 9 8 8 9 9 10 10 10 11 10 9 9 9 11 12 13 13 13 14 14 13 13 12 12 12 12 12 13 13 14 14 13 10 9 15 16 14 12 12 14 12 12 12 11 13 7 11 16 12 15 14 12 10 14 17 15 12 13 18 18 20 23 21
4 5 7 8 8 7 8 8 8 10 10 10 10 11 10 10 10 10 10 10 10 9 9 9 9 10 10 11 11 12 12 11 11 11 11 13 13 13 13 13 14 14 13 13 12 12 12 12 13 13 13 14 12 10 7 12 14 13 12 13 13 17 17 16 15 14 12 10 12 14 14 14 14 13 11 15 16 15 13 13 14 17 19 21 22
4 4 6 7 8 9 9 9 9 9 9 9 9 10 10 10 10 10 10 10 10 10 10 10 11 11 11 11 11 12 12 11 12 12 13 14 14 14 13 13 14 14 13 12 12 12 12 13 14 15 15 13 9 7 7 10 11 11 14 15 14 15 18 17 16 14 13 11 12 14 13 13 13 14 13 14 14 15 14 14 12 16 17 20 22
4 3 4 6 8 9 9 9 9 9 8 8 9 10 10 10 11 11 10 11 10 10 11 11 11 11 11 11 11 11 12 12 12 13 14 15 14 15 14 13 13 13 13 12 12 12 13 15 16 16 13 11 11 9 9 9 10 10 12 10 12 14 17 16 15 15 15 13 11 13 13 15 14 14 14 15 12 13 13 10 12 13 18 19 20
4 2 2 4 7 10 9 9 8 8 8 8 9 10 10 10 11 10 10 10 10 10 10 10 10 10 10 11 11 11 12 13 13 13 14 15 15 14 13 12 12 12 12 11 12 13 15 16 16 13 12 16 12 10 9 11 9 9 11 10 12 15 13 16 13 14 16 14 12 13 13 11 13 14 16 15 14 13 10 9 11 13 14 17 17
5 4 3 3 3 9 9 9 8 8 8 8 9 9 9 9 9 9 9 9 9 10 9 9 9 10 10 10 11 13 13 13 13 14 15 15 15 14 12 12 12 11 11 11 12 13 15 16 15 14 13 13 12 11 13 12 8 7 8 7 8 9 11 17 12 12 15 16 13 12 14 11 12 15 14 14 12 11 9 8 10 11 12 13 16
6 6 5 4 3 7 10 9 9 9 8 8 8 8 8 9 9 9 10 10 10 10 9 9 10 10 11 11 12 14 13 13 14 15 15 15 15 13 12 12 11 10 10 11 12 13 16 17 16 13 14 13 12 11 13 14 8 5 8 7 11 17 14 10 11 12 14 16 14 12 14 13 13 14 13 12 13 13 11 11 13 16 17 17 18
4 4 4 4 4 2 10 10 9 9 9 9 8 8 9 9 9 9 9 9 9 9 9 9 10 10 10 11 13 14 13 14 14 15 15 14 13 13 12 11 11 10 11 12 13 14 16 16 12 11 11 13 12 12 9 11 12 12 9 16 13 13 16 14 9 12 13 15 13 12 13 14 17 15 14 12 11 15 14 13 14 15 16 17 18
3 3 2 2 1 1 2 7 10 9 9 9 8 9 9 9 9 8 8 8 8 8 8 9 10 10 10 12 13 13 14 14 15 15 14 13 12 12 12 11 10 11 12 13 13 14 15 15 11 10 11 12 11 10 12 7 8 8 7 7 14 12 12 16 16 14 13 13 13 14 14 14 16 14 13 12 12 15 16 16 14 13 15 16 17
1 2 3 4 2 2 2 2 5 10 9 8 8 8 8 8 8 8 8 8 8 8 8 9 9 10 11 12 12 13 14 15 15 14 13 12 12 12 12 11 11 12 12 12 13 12 12 14 12 12 12 11 10 10 9 9 6 7 8 8 9 11 11 11 19 17 15 16 15 14 15 14 14 14 13 12 12 14 17 17 15 14 13 14 16
0 1 2 2 4 3 3 3 3 4 2 6 9 10 9 9 8 8 8 8 8 8 8 9 9 10 11 11 12 14 14 14 14 13 13 12 12 12 11 11 12 12 12 12 12 12 14 13 12 10 9 9 8 9 7 8 7 5 6 8 7 7 9 10 21 18 16 16 15 15 14 15 15 14 13 12 13 15 16 16 15 14 16 15 15
2 1 0 1 2 2 1 2 2 2 3 2 2 5 12 11 11 11 10 10 9 9 9 9 9 10 11 12 13 14 14 14 13 13 12 12 11 11 11 11 12 11 11 12 12 12 13 13 12 10 8 7 7 7 7 7 9 7 4 5 4 6 7 14 19 18 18 16 16 14 14 17 15 14 13 9 8 14 16 15 15 12 13 11 13
3 2 2 2 1 1 1 3 2 2 2 3 3 3 6 13 13 13 12 11 10 9 10 9 10 10 11 12 12 11 10 9 12 9 9 9 9 7 8 10 11 10 10 10 11 11 11 12 11 8 6 7 6 7 8 10 8 9 10 10 9 8 14 17 17 17 17 16 16 15 14 15 15 14 13 13 14 13 13 15 15 15 12 12 14
5 3 3 4 4 4 4 4 4 4 3 3 2 3 4 9 9 12 13 12 10 10 9 10 9 9 9 9 11 7 4 4 5 4 6 5 6 7 7 8 9 10 10 9 10 8 9 11 11 10 7 8 9 7 8 8 9 10 12 12 11 16 17 19 18 18 17 17 16 16 16 16 15 14 14 13 13 11 11 13 14 15 11 12 13
6 5 4 5 5 5 5 4 3 3 4 3 2 1 1 5 2 2 2 4 6 7 5 3 5 2 7 6 3 3 3 3 4 5 5 6 6 8 9 10 10 10 9 9 9 11 12 12 11 13 12 9 9 12 12 10 7 10 14 13 18 20 19 18 19 18 18 18 18 16 18 15 13 13 14 13 13 12 12 11 14 15 11 12 13
5 5 6 8 7 5 4 4 3 2 3 3 2 2 2 1 2 2 0 3 3 4 3 3 2 2 2 2 1 1 2 3 4 5 6 7 7 8 9 9 9 9 9 8 9 9 11 11 12 12 13 12 13 17 15 14 14 11 14 16 19 19 18 19 18 18 18 18 17 16 17 17 16 14 12 12 12 11 12 15 14 14 14 12 12
4 5 5 5 6 5 6 5 4 3 3 2 2 2 2 1 1 1 1 0 1 2 2 2 2 2 1 0 1 2 3 4 3 4 4 5 6 5 5 6 6 6 7 10 10 12 12 12 12 12 13 18 19 18 17 16 16 17 16 17 18 18 18 18 18 17 16 16 15 15 15 15 13 12 10 12 12 11 11 12 12 11 13 11 11
2 2 2 4 6 6 6 5 5 4 4 4 4 3 2 2 2 1 1 0 1 2 1 1 1 1 0 1 2 2 3 5 5 6 7 8 9 11 12 13 14 13 10 13 13 14 16 17 16 16 18 19 19 20 19 17 17 17 16 16 17 17 17 18 18 17 16 15 14 15 15 14 12 11 10 10 10 11 10 10 10 8 12 9 11
1 3 5 4 6 6 6 5 5 5 5 4 4 3 4 3 3 2 1 1 1 1 1 0 0 1 2 2 3 3 4 5 8 8 9 10 11 13 14 16 17 17 17 16 15 15 17 19 19 18 19 20 20 20 21 20 18 18 17 16 16 16 17 17 17 17 16 15 14 15 14 14 12 11 10 8 9 10 9 9 10 7 11 9 10
3 3 4 4 5 6 6 4 4 5 6 5 3 2 2 3 3 2 2 3 1 0 0 1 2 3 3 4 4 6 8 9 10 11 10 13 13 14 16 18 18 18 19 20 16 16 18 19 21 19 19 19 19 20 21 21 21 20 18 16 16 15 17 18 18 17 16 14 14 15 15 13 12 11 11 9 9 9 8 10 10 7 8 8 8
2 1 4 5 5 6 5 5 4 5 5 5 5 4 3 4 4 3 3 3 0 0 1 2 3 4 6 7 9 10 10 12 13 13 13 16 16 16 18 19 20 20 20 22 19 17 18 20 20 20 19 19 18 19 20 20 20 22 19 16 15 17 18 19 18 16 15 13 13 12 14 14 13 12 10 9 7 7 8 6 6 9 8 7 1
3 3 3 5 6 5 6 7 7 8 6 4 6 4 3 4 3 2 1 1 2 2 3 4 5 7 8 9 12 12 13 14 14 14 15 16 17 18 20 20 21 20 21 22 23 20 20 20 20 20 20 20 20 19 19 19 21 22 22 17 18 20 20 19 16 14 14 13 12 12 13 12 13 13 10 9 7 5 6 8 5 8 7 6 6
4 4 3 4 4 5 6 7 7 6 4 3 4 2 3 3 3 2 2 3 3 4 5 6 8 9 10 12 14 15 14 15 16 16 17 17 19 19 21 21 21 21 22 21 23 24 23 21 19 19 21 21 20 20 20 19 20 21 22 21 20 22 21 18 13 12 12 12 12 12 12 11 8 9 10 10 11 9 7 9 9 10 10 6 1
4 4 4 2 4 5 6 5 5 3 2 2 2 2 3 3 3 4 5 5 6 7 9 9 10 10 11 12 14 16 15 16 17 16 17 18 19 20 22 23 23 23 22 19 20 23 24 23 21 20 21 21 20 21 21 20 20 20 22 23 21 20 18 14 10 9 10 11 11 11 11 10 8 5 8 9 10 11 10 12 12 12 12 14 10
4 5 4 1 2 5 6 5 5 4 4 3 3 4 4 4 4 5 6 6 8 9 10 11 11 11 12 13 15 16 17 17 18 18 19 19 20 22 24 25 26 26 24 23 23 24 22 21 24 24 24 23 20 20 21 22 20 21 22 22 20 18 15 12 8 6 7 9 11 11 11 11 9 8 8 7 9 11 12 17 18 17 16 15 6
5 3 2 2 4 3 3 4 5 6 6 5 5 5 6 6 5 6 7 8 9 10 11 11 12 12 13 14 15 16 17 18 18 19 19 20 21 23 26 30 32 29 27 27 30 30 26 25 27 29 28 24 21 20 22 23 21 20 22 21 19 15 11 7 6 5 6 8 9 11 11 10 12 11 8 4 6 8 9 15 19 21 21 18 13
4 3 3 2 2 3 4 6 7 7 8 8 8 7 7 6 7 7 9 10 10 11 11 11 12 12 13 13 14 15 16 17 18 17 19 19 21 22 25 27 30 33 29 29 29 29 27 27 30 32 26 23 21 21 21 21 21 20 21 20 18 13 8 5 5 4 4 6 8 10 10 10 11 12 11 8 6 8 8 11 11 12 18 18 18
6 6 5 4 3 4 7 8 9 8 8 9 9 8 8 8 8 9 10 11 11 11 10 11 12 12 14 15 17 18 18 18 17 17 17 19 20 22 23 23 25 25 27 28 31 31 27 25 30 31 27 24 20 19 20 20 19 18 18 17 13 9 5 4 5 4 4 5 6 7 8 8 10 11 11 11 9 9 11 9 13 14 11 19 20
10 8 7 7 5 6 9 11 12 11 10 10 10 9 9 9 10 11 11 11 10 10 10 11 12 14 17 18 20 21 20 19 16 16 16 17 18 18 25 26 25 23 25 26 29 29 28 27 25 27 27 23 18 17 20 18 18 16 15 13 9 6 3 4 4 4 4 6 5 5 5 7 8 10 11 11 10 nan 5 11 13 19 16 17 18
12 13 11 11 nan nan 12 14 14 13 11 12 12 11 11 11 12 12 12 12 11 10 13 13 14 15 16 17 18 17 18 14 14 14 16 19 21 23 27 28 29 24 25 27 26 25 24 26 27 19 20 18 14 14 16 15 14 14 12 9 7 4 3 4 5 5 6 5 4 3 3 4 5 5 6 9 9 nan 8 7 11 15 14 16 19
13 14 15 15 15 16 17 16 15 15 15 14 13 12 12 13 14 15 17 17 16 14 13 14 15 15 14 13 12 12 13 11 9 12 15 18 20 23 23 25 25 21 21 26 28 23 21 26 24 14 14 12 10 12 12 11 12 11 9 7 5 5 4 4 6 7 6 5 4 4 3 2 2 3 4 7 7 7 8 6 10 17 15 13 16
12 13 15 14 15 16 17 16 16 16 16 15 14 15 17 19 20 20 18 15 13 13 14 14 14 12 11 9 8 8 9 10 11 11 14 17 18 19 20 22 22 21 22 23 25 25 23 21 12 12 17 11 8 11 10 10 9 8 7 5 5 5 5 6 8 7 6 6 5 5 7 4 3 4 5 8 8 7 8 8 3 6 7 16 15
13 13 15 16 16 17 17 18 17 16 17 17 18 19 19 20 19 16 15 14 13 12 13 15 13 11 9 9 9 9 11 11 12 12 13 16 18 18 20 20 19 20 22 21 23 26 22 15 8 8 13 10 9 11 11 11 8 7 6 5 6 6 6 8 7 6 7 7 7 9 8 8 7 8 8 8 9 9 9 9 6 7 7 10 16
13 14 16 16 16 16 18 20 17 16 18 19 19 20 21 21 17 15 13 12 11 12 13 13 11 9 9 11 11 12 12 12 13 12 13 14 16 17 19 20 21 20 23 25 22 17 14 14 12 14 14 12 11 13 12 12 8 6 7 5 6 7 6 6 7 7 8 9 9 11 11 11 10 10 9 9 9 9 10 10 8 9 8 6 7
10 12 13 14 16 17 20 18 18 18 18 17 18 20 22 23 17 12 13 12 10 12 12 11 9 10 12 13 14 13 12 11 12 11 11 13 13 16 17 18 19 19 22 18 10 7 15 8 15 18 15 13 12 11 10 10 9 10 6 4 5 nan 7 8 8 7 12 11 12 12 13 13 13 11 11 12 12 10 9 10 10 10 10 8 8
6 10 10 11 14 16 17 18 17 17 17 17 17 18 20 22 22 10 10 8 9 9 9 8 9 11 13 14 14 12 11 11 11 10 11 12 12 13 14 15 16 15 17 15 10 10 6 3 13 16 12 12 10 9 7 8 9 9 9 7 nan nan 6 nan nan nan 13 14 14 14 14 14 15 14 13 12 13 14 11 10 11 10 10 10 13
3 7 10 6 7 11 11 12 12 12 12 12 14 13 14 16 17 13 5 4 6 6 7 9 11 12 13 12 12 11 11 11 12 11 11 13 13 13 12 12 14 13 15 14 14 nan 7 8 13 13 11 10 8 7 9 8 11 10 9 nan 8 nan nan nan nan nan 14 16 16 16 15 15 16 17 16 14 13 13 13 12 12 11 10 11 13
4 6 9 4 2 7 5 5 8 9 7 7 8 8 9 7 7 7 5 5 5 6 10 8 10 10 11 10 11 11 11 12 12 13 12 13 13 13 14 nan nan 13 13 nan 12 11 8 10 14 13 12 12 10 9 9 10 12 12 14 13 12 nan nan nan nan nan nan 15 17 16 15 15 15 15 15 14 13 13 12 13 13 12 11 12 12
5 6 7 8 9 6 5 4 5 5 4 4 5 4 4 5 5 7 7 7 6 7 10 8 7 9 10 10 12 11 12 13 13 13 13 13 14 13 14 15 nan 14 13 13 11 11 12 11 13 13 13 12 13 nan nan nan nan nan 15 14 nan 15 12 13 nan nan nan 14 11 12 13 13 13 12 12 12 12 12 12 11 12 12 11 11 12
7 8 11 14 13 9 8 7 6 5 3 4 7 6 6 7 9 10 11 11 11 8 10 9 10 11 12 12 13 13 14 14 14 14 14 14 14 14 13 13 13 14 13 14 15 13 12 13 14 14 13 13 nan nan nan nan nan nan nan nan 14 14 15 15 nan nan nan nan nan 11 12 12 12 11 11 11 11 11 12 12 12 12 12 12 12
14 16 16 15 12 9 8 6 4 6 6 8 8 7 8 10 11 12 12 13 12 10 9 10 12 13 13 13 14 14 14 15 14 16 16 16 15 14 12 12 13 12 14 15 14 14 15 nan nan nan nan nan nan nan nan nan nan nan nan nan nan nan nan nan nan nan nan nan nan nan 11 11 12 13 12 11 11 12 13 13 13 13 13 13 13
18 16 14 14 14 13 12 10 9 9 9 9 9 10 11 12 13 12 10 10 12 11 12 13 14 14 15 15 15 15 15 15 16 16 16 16 15 14 13 13 13 13 14 15 15 nan nan nan nan nan nan nan nan nan nan nan nan nan nan nan nan nan nan nan nan nan nan nan nan nan nan nan nan 16 17 16 14 15 15 16 15 16 16 15 15
17 17 16 16 15 15 16 15 13 11 11 10 11 11 12 12 12 11 11 9 11 12 14 15 15 16 17 16 16 15 15 14 14 15 15 15 14 14 13 13 14 14 15 15 nan nan nan nan nan nan nan nan nan nan nan nan nan nan nan nan nan nan nan nan nan nan nan nan nan nan nan nan nan nan nan 20 20 19 19 19 19 18 18 18 19
19 20 20 19 18 18 17 17 14 12 11 11 11 10 11 11 11 12 12 12 13 14 15 15 16 16 17 16 16 14 14 14 14 14 15 14 13 14 14 15 16 16 nan nan nan nan nan nan nan nan nan nan nan nan nan nan nan nan nan nan nan nan nan nan nan nan nan nan nan nan nan nan nan nan nan 20 23 24 23 22 21 20 19 18 19
Wind_Direction
68 34 56 18 17 41 43 62 75 83 78 77 66 64 66 61 46 32 11 359 355 11 24 21 16 9 2 356 356 359 3 1 351 343 347 352 358 7 16 20 19 18 16 17 19 17 12 8 8 12 13 19 22 23 19 13 11 7 2 0 359 2 357 355 355 357 356 356 355 351 346 345 348 353 341 336 338 343 343 340 341 345 343 344 339
45 57 47 26 12 17 26 34 51 59 60 59 59 56 64 59 48 31 17 6 14 30 39 35 27 16 7 1 0 5 4 5 355 351 358 7 16 25 29 27 26 27 25 23 23 22 16 15 17 19 22 19 24 27 24 21 10 8 2 3 4 2 1 354 356 357 0 358 357 358 354 347 343 343 338 334 336 345 345 342 340 341 346 346 339
34 57 66 32 13 13 16 22 26 30 34 43 42 39 46 43 38 29 24 22 33 43 41 38 30 25 13 9 10 16 20 16 8 9 16 22 34 37 38 33 33 34 32 30 27 24 21 20 23 27 30 29 30 24 25 27 25 22 10 3 6 10 9 358 355 359 359 3 5 2 356 351 339 344 336 336 339 345 347 345 345 343 350 344 345
42 82 84 36 19 18 17 14 10 6 3 19 25 28 32 35 36 36 38 37 41 45 44 44 35 27 21 18 25 34 35 30 23 24 27 38 39 41 43 36 37 37 37 32 31 31 30 31 32 33 30 29 30 26 25 26 24 17 18 36 66 21 14 8 1 359 1 8 12 4 347 332 340 353 343 342 339 343 346 349 350 349 350 344 350
53 79 89 79 72 43 23 8 4 4 358 6 19 25 29 29 35 40 41 40 42 42 41 40 35 27 20 27 39 42 43 40 34 35 35 41 43 44 45 43 41 41 39 37 38 40 37 35 34 35 34 35 34 27 27 26 23 26 29 25 36 36 20 14 6 2 0 21 12 4 340 336 337 354 354 346 343 346 345 347 353 354 350 347 347
84 84 87 90 88 77 37 19 9 8 7 7 12 22 29 30 35 44 44 41 41 40 39 37 33 31 29 31 41 43 43 45 39 35 37 41 45 45 46 44 45 45 44 41 42 42 42 43 42 39 36 35 33 29 20 18 16 30 40 27 32 28 27 17 4 354 345 35 21 357 348 344 339 343 4 351 343 346 346 347 353 355 351 345 348
104 113 106 100 100 80 41 29 16 15 15 13 18 23 27 32 37 44 43 42 43 40 39 38 36 33 35 36 39 41 43 44 40 36 41 43 47 48 49 48 50 51 49 47 46 45 44 41 43 44 40 40 36 32 24 354 20 20 33 44 31 24 32 30 11 18 6 358 343 342 348 348 342 342 7 357 349 349 354 349 350 359 356 343 358
116 124 122 122 120 80 43 35 23 18 19 20 23 27 30 34 38 40 42 44 43 42 41 41 39 37 35 36 36 39 43 43 40 41 45 48 49 50 51 54 56 56 55 55 51 47 45 46 47 45 45 43 39 36 21 6 14 26 25 31 34 28 28 33 21 26 17 341 334 341 343 349 351 339 6 2 3 354 355 349 355 360 359 350 349
73 110 117 123 116 56 53 44 37 27 25 24 22 24 26 29 34 38 42 43 44 42 43 40 39 39 36 36 38 41 41 41 41 44 50 54 56 56 57 58 60 61 57 52 50 47 46 45 46 44 45 47 43 34 30 19 23 8 24 26 34 33 28 25 23 25 10 341 335 341 343 350 354 348 357 11 358 355 358 355 359 1 357 357 344
49 89 112 116 106 50 51 43 43 36 30 26 25 23 25 28 33 36 39 41 43 42 41 43 43 42 39 40 44 46 45 45 47 52 55 59 61 60 59 59 60 60 56 51 48 44 43 43 44 40 36 38 34 28 35 45 37 23 9 23 27 34 33 28 23 21 2 351 339 342 344 356 357 351 0 6 11 359 2 4 353 352 360 359 351
31 65 99 110 99 48 50 46 46 43 35 30 27 27 27 31 35 38 38 42 44 44 44 46 46 44 42 44 48 50 53 51 55 59 64 66 65 60 58 60 60 59 54 48 46 42 40 41 39 35 31 29 20 15 29 31 43 34 357 31 31 32 35 30 26 1 360 348 343 351 354 10 360 353 5 7 3 11 6 3 357 3 6 3 356
15 28 75 85 64 39 42 42 42 43 39 35 33 34 33 35 38 40 43 47 47 48 50 49 50 51 50 50 49 53 56 57 60 66 70 70 67 66 64 60 57 53 52 48 46 42 40 39 37 35 33 27 14 3 28 35 17 24 29 20 39 37 33 32 17 356 353 346 354 359 356 351 352 1 9 10 4 8 2 5 359 358 8 7 354
10 360 6 41 88 38 35 34 36 44 39 42 41 40 44 42 44 46 48 48 49 48 49 52 55 53 51 54 57 57 58 62 65 69 70 69 69 68 65 59 56 52 51 49 44 46 45 41 37 25 30 35 3 1 21 25 6 28 39 55 44 35 36 31 8 356 347 346 355 2 9 351 347 8 6 10 7 355 345 358 350 359 359 2 355
15 2 353 4 35 39 24 32 34 37 39 45 44 45 48 49 48 46 43 43 43 44 45 50 54 54 54 58 62 63 66 70 71 70 69 68 69 67 61 58 55 53 50 52 51 50 44 39 28 32 23 16 19 5 25 19 348 42 9 3 34 19 32 33 17 352 350 351 358 5 14 2 352 6 0 8 5 357 351 357 353 1 7 4 358
44 21 3 357 8 51 26 26 28 29 32 36 43 43 46 49 49 45 44 40 42 43 44 48 52 53 58 65 67 69 72 73 73 71 69 69 70 65 59 54 51 50 49 51 50 50 49 47 35 23 30 19 18 357 20 35 5 359 20 9 16 22 27 354 347 346 347 354 3 3 6 359 8 7 8 9 8 1 353 355 2 7 6 4 4
116 114 91 62 19 56 73 32 29 29 30 34 36 39 45 48 50 51 47 46 49 49 48 50 53 57 62 68 72 76 78 76 72 70 70 70 68 65 60 53 48 48 48 49 51 51 53 52 38 21 16 27 21 7 4 17 14 346 345 25 4 19 25 355 342 348 347 349 5 8 2 3 12 8 10 11 7 4 354 357 2 3 8 5 5
40 122 134 118 129 128 109 123 53 34 32 32 36 38 41 46 50 52 52 50 53 54 52 55 60 66 70 73 78 81 78 76 74 73 72 67 62 58 54 50 47 46 47 47 47 45 49 51 38 25 19 24 25 20 11 3 13 9 345 11 24 10 5 358 328 341 350 357 11 5 1 358 11 18 12 7 4 8 2 358 354 355 5 5 9
333 23 79 111 143 146 139 138 119 85 85 41 38 37 37 39 42 43 47 51 53 54 54 58 65 71 74 77 80 80 77 75 74 70 65 60 56 53 49 47 47 45 45 44 45 37 36 44 45 29 17 18 23 24 23 332 5 34 344 354 360 2 341 338 330 334 346 2 5 3 355 0 10 15 10 9 4 9 357 358 349 357 5 3 9
280 10 31 75 109 124 86 97 101 76 83 88 114 60 45 39 38 37 41 44 49 52 56 61 69 74 78 81 82 81 81 80 78 70 64 59 53 51 45 44 45 45 42 42 38 35 31 34 37 35 12 9 26 24 358 11 3 353 351 328 337 328 321 316 328 333 343 351 351 357 357 3 13 13 13 4 12 9 1 354 348 353 4 0 9
272 315 339 3 360 2 34 33 37 28 22 42 54 74 76 53 42 40 41 43 48 52 62 70 77 82 83 83 86 85 83 78 78 70 66 68 62 46 45 45 46 39 34 36 37 30 27 25 25 23 2 355 12 27 8 15 348 352 350 340 332 324 316 322 327 337 340 343 344 350 2 3 9 14 19 10 16 8 356 351 351 347 358 357 5
285 315 330 344 345 349 357 356 5 358 353 353 29 58 69 71 54 48 46 47 48 57 66 76 83 88 90 90 85 80 50 34 39 18 48 20 49 52 49 52 46 37 33 27 30 7 1 21 9 350 353 357 356 15 25 16 349 338 335 332 333 317 324 324 330 333 334 335 339 340 360 9 10 9 22 20 17 3 355 347 345 337 350 1 1
312 321 333 338 343 351 355 344 337 342 325 335 339 32 64 81 84 107 80 63 70 76 83 94 96 101 94 93 86 47 38 3 7 15 358 352 359 33 34 38 38 41 31 23 17 13 3 10 4 341 343 0 357 334 328 334 336 327 326 325 321 324 321 326 329 331 334 331 330 337 5 9 9 12 18 20 15 1 347 338 335 332 349 359 0
339 334 340 349 348 345 351 356 349 327 338 324 341 355 35 82 103 95 123 94 96 106 119 124 135 117 102 75 50 20 11 357 343 360 359 29 27 30 32 33 33 28 22 14 14 12 6 5 5 356 347 350 330 321 324 325 325 327 322 323 326 326 323 323 326 329 333 331 331 348 5 12 11 9 14 17 15 9 352 339 341 332 342 352 357
352 348 355 355 350 354 5 3 4 358 357 358 6 352 348 352 64 72 77 87 122 120 132 134 143 144 130 268 352 327 340 333 4 61 53 328 323 0 25 31 27 14 11 344 2 356 3 3 4 4 339 322 318 323 325 326 323 322 323 326 331 335 333 327 324 329 332 335 335 354 10 19 14 6 9 15 13 12 8 346 335 328 323 342 348
349 302 343 14 4 0 355 3 3 359 10 23 30 27 6 3 26 39 38 46 153 139 128 123 135 141 54 333 360 346 337 323 317 306 308 306 309 310 310 311 310 317 334 328 331 329 326 327 326 327 323 325 323 322 323 325 323 320 322 326 333 339 341 333 324 326 330 331 339 358 8 12 10 7 5 25 18 13 18 359 324 301 309 339 341
255 347 7 2 5 2 359 354 358 5 6 12 34 37 33 27 32 31 42 64 83 101 132 154 325 10 353 348 332 332 318 307 300 300 301 303 305 308 310 310 313 320 322 323 325 325 322 323 325 327 325 322 324 321 322 324 323 321 321 323 327 335 340 339 327 324 327 328 335 356 6 10 7 2 358 32 23 17 15 359 314 315 301 319 346
5 16 336 352 358 3 4 350 8 8 14 22 40 36 45 52 49 44 52 78 44 108 233 291 340 323 324 317 313 301 297 294 294 298 304 302 307 310 309 309 313 316 317 318 322 323 322 322 323 325 321 321 321 321 321 323 324 324 324 325 324 327 331 334 332 327 324 327 334 355 359 3 8 4 360 11 26 20 17 358 315 291 290 300 5
258 334 343 344 353 9 357 8 27 27 31 33 48 51 74 82 79 81 80 91 80 319 283 309 296 309 305 297 299 294 295 296 299 303 309 309 314 313 312 311 313 313 314 315 319 322 321 321 321 321 320 318 318 317 316 317 319 323 326 328 324 321 323 324 328 328 323 327 329 347 1 358 358 5 2 3 11 20 14 340 271 282 299 302 3
306 348 348 342 354 354 357 20 39 43 45 47 57 57 70 82 92 93 77 106 289 310 298 283 290 294 297 301 300 300 300 303 306 311 311 313 314 312 311 311 309 309 307 312 317 320 319 318 318 318 315 314 314 313 313 314 316 320 324 325 321 321 321 317 319 323 321 324 330 340 2 5 358 352 356 353 345 21 15 316 280 289 281 289 326
330 310 341 345 320 343 7 24 37 47 46 37 59 37 22 31 39 16 328 298 306 297 290 295 295 298 301 305 305 305 308 308 310 312 313 314 311 310 304 303 301 301 303 308 314 317 319 316 316 317 314 311 312 311 309 312 316 318 319 320 318 321 321 314 311 315 318 320 328 336 4 3 12 350 351 355 340 350 353 315 310 284 283 270 174
312 339 14 352 311 339 11 16 24 22 345 10 351 351 316 345 351 312 300 310 305 297 300 300 299 302 306 303 304 307 309 310 311 313 310 313 308 304 300 298 300 298 297 301 304 315 316 317 316 313 308 304 306 306 307 308 310 315 315 314 316 318 318 307 301 310 315 318 327 337 347 5 4 24 10 1 342 346 335 312 302 286 274 246 186
16 29 23 355 333 13 6 357 354 334 315 324 296 299 302 315 312 297 298 299 297 299 300 302 303 303 299 300 305 308 310 311 313 312 313 310 307 303 303 302 301 297 297 293 295 302 307 312 310 302 294 295 296 298 303 304 307 314 312 313 313 316 312 297 290 305 315 316 329 340 344 340 358 15 21 8 352 348 336 325 323 312 303 280 297
40 31 9 15 33 18 350 333 320 309 316 325 307 297 295 305 311 306 300 294 295 294 299 304 306 309 307 309 308 310 311 311 312 314 311 308 307 309 304 302 298 294 295 297 296 296 298 303 308 298 290 287 288 294 297 300 305 311 310 310 312 318 310 286 279 290 313 322 331 341 344 344 342 5 20 16 2 353 335 338 334 324 306 302 289
356 335 296 6 1 271 284 282 300 316 325 313 303 302 309 309 306 305 299 296 296 297 303 308 311 309 305 307 311 314 310 304 303 303 305 309 310 309 307 305 299 297 301 291 287 286 284 296 301 296 300 293 287 289 292 296 301 306 309 310 313 317 302 274 275 289 307 325 330 331 338 345 352 354 6 15 4 354 344 339 333 307 302 302 293
264 270 303 354 320 303 286 291 304 317 310 309 309 312 301 304 304 297 290 290 293 299 305 309 312 314 313 312 307 303 301 303 307 314 320 323 324 325 325 310 301 301 295 290 290 285 283 288 291 300 301 293 288 284 289 295 296 302 307 305 312 312 296 273 275 295 311 318 316 327 337 350 1 8 7 10 14 18 12 345 332 332 318 311 306
268 270 263 259 285 307 301 302 298 306 306 305 302 300 297 297 293 287 287 290 295 303 306 307 310 312 309 309 306 302 300 297 301 307 315 319 320 311 293 292 291 291 295 295 289 291 295 292 293 303 306 292 280 278 284 289 294 303 304 302 312 307 280 271 279 304 308 299 307 316 335 357 8 6 18 17 14 nan 36 352 9 352 346 321 303
266 272 276 271 nan nan 296 295 300 305 296 292 291 291 289 289 286 284 290 292 298 296 286 294 300 304 306 305 301 297 293 299 305 313 320 323 325 316 316 317 312 312 312 306 294 285 286 286 281 286 312 301 279 275 278 287 296 304 304 306 314 300 267 268 278 290 284 284 291 297 326 360 7 5 354 8 8 nan 5 16 12 352 355 344 306
248 256 255 260 266 271 278 281 283 288 292 296 294 293 287 282 279 279 278 281 283 286 294 301 306 304 301 297 295 295 303 316 317 317 322 323 325 330 332 330 331 330 323 319 312 302 286 289 291 303 333 322 285 286 286 290 302 302 304 309 306 284 266 261 275 278 275 268 273 287 302 321 337 338 330 333 348 0 343 311 17 352 13 343 309
236 242 253 256 262 266 269 269 275 284 292 295 290 283 274 269 266 267 269 267 273 281 285 289 290 290 287 289 296 304 312 318 325 322 316 320 329 336 337 335 338 339 340 328 320 318 303 295 304 333 336 338 297 303 305 294 301 306 313 313 297 300 283 276 261 263 264 266 279 290 291 278 281 283 297 311 321 334 328 309 317 338 344 1 332
231 232 246 255 261 261 261 259 262 272 275 275 277 277 275 276 276 271 271 269 275 280 279 287 288 292 298 300 308 317 318 319 318 320 324 331 334 340 342 338 339 344 346 332 320 318 314 306 331 334 323 317 315 310 299 296 307 322 319 306 309 290 275 278 269 255 254 258 264 268 265 267 267 269 282 289 297 306 318 309 322 337 341 1 352
225 234 241 248 253 257 256 252 249 256 267 272 271 277 278 273 261 265 273 278 284 288 285 286 289 299 293 297 303 309 315 314 316 320 325 332 336 341 345 347 353 357 354 351 336 329 359 12 336 323 324 314 295 290 291 298 295 291 293 271 252 268 264 270 260 264 264 262 266 270 271 263 263 273 277 283 285 288 300 307 307 312 324 316 338
226 233 246 256 255 253 255 250 246 250 255 260 267 274 274 276 268 259 268 275 279 272 270 278 283 290 290 295 299 303 308 313 316 321 327 332 338 345 352 356 357 2 355 344 338 6 51 20 312 315 321 308 294 289 294 304 286 286 282 243 240 nan 263 267 260 258 265 268 272 271 270 270 268 271 278 287 286 286 290 296 299 305 308 312 301
232 239 238 246 257 263 265 265 262 265 271 277 282 286 285 289 292 299 296 269 262 271 279 282 286 293 292 291 293 300 310 310 311 317 320 322 332 341 348 350 353 359 356 348 346 342 330 270 309 320 324 303 299 312 298 298 297 301 306 295 nan nan 254 nan nan nan 263 270 279 275 272 270 275 276 278 277 280 285 282 289 297 300 306 304 281
278 268 257 223 278 278 268 267 267 266 276 280 280 275 279 285 296 322 319 289 272 268 281 296 286 291 288 289 297 299 301 305 310 313 314 316 321 326 330 337 339 336 340 338 350 nan 317 273 303 316 311 301 301 309 297 294 305 308 287 nan 301 nan nan nan nan nan 277 279 279 282 279 272 275 282 281 283 282 280 284 286 289 291 295 296 293
17 309 282 250 6 315 302 290 265 258 260 269 272 274 270 261 268 292 302 275 271 269 276 281 284 288 292 294 297 299 301 301 301 297 298 301 307 312 315 nan nan 320 325 nan 334 353 302 287 304 309 302 314 301 306 302 292 290 305 305 300 294 nan nan nan nan nan nan 279 277 281 285 282 277 277 279 280 282 282 280 284 286 284 287 284 286
12 312 310 31 38 343 333 328 306 288 282 290 304 303 300 299 287 267 260 265 272 283 280 289 296 303 306 309 302 298 297 299 301 300 304 307 306 311 312 309 nan 313 318 328 328 317 312 305 305 309 310 308 309 nan nan nan nan nan 295 305 nan 308 305 302 nan nan nan 284 274 273 276 281 279 277 277 277 282 283 286 283 283 284 282 281 279
353 321 351 23 23 4 6 347 343 332 317 313 329 334 309 301 294 301 305 304 305 321 320 323 320 321 314 309 307 305 303 300 302 306 308 312 314 315 309 305 307 313 322 317 315 314 312 308 312 309 306 308 nan nan nan nan nan nan nan nan 301 302 312 304 nan nan nan nan nan 270 268 274 281 281 281 281 284 285 284 285 284 282 279 278 279
360 358 357 357 351 348 340 332 331 302 304 318 332 333 320 319 309 304 310 315 321 328 320 326 318 313 309 308 311 310 310 312 313 315 317 321 323 318 316 317 316 317 311 309 307 313 317 nan nan nan nan nan nan nan nan nan nan nan nan nan nan nan nan nan nan nan nan nan nan nan 288 274 278 284 284 282 287 289 289 285 285 284 278 274 271
355 348 341 338 337 333 328 323 313 316 317 331 325 323 320 316 315 315 311 319 328 326 325 319 313 311 308 308 310 312 315 319 318 321 324 329 335 336 336 336 335 334 322 318 314 nan nan nan nan nan nan nan nan nan nan nan nan nan nan nan nan nan nan nan nan nan nan nan nan nan nan nan nan 289 287 286 284 290 294 291 288 285 281 278 273
339 335 332 330 328 326 324 318 315 314 319 311 315 316 315 317 315 318 320 312 318 318 316 312 313 312 309 309 312 315 319 321 322 323 329 333 337 342 341 339 341 339 327 326 nan nan nan nan nan nan nan nan nan nan nan nan nan nan nan nan nan nan nan nan nan nan nan nan nan nan nan nan nan nan nan 280 274 284 290 291 288 285 283 280 277
331 331 329 327 324 320 315 307 312 309 304 305 306 311 313 318 321 323 323 320 314 312 309 309 311 309 310 312 316 325 328 328 329 328 332 337 334 332 329 325 325 326 nan nan nan nan nan nan nan nan nan nan nan nan nan nan nan nan nan nan nan nan nan nan nan nan nan nan nan nan nan nan nan nan nan 278 275 277 279 283 283 282 280 277 277